sat.trackr.live / text

‹ back to catalog

GONETS-M 18

NORAD 46487 · 2020-068B

PAYLOAD ACTIVE UNKNOWN

§ Identity

Operator
Country
CIS
Launch date
2020-09-28
Launch site
PLMSC
Launch vehicle
Mass (kg)
RCS (m²)

External: N2YO · Heavens-Above · Gunter

§ Orbital elements

Epoch: 2026-09-20T03:51:04.150080Z

Period
115.86 min
Inclination
82.4901°
Eccentricity
0.0019874
Mean motion
12.42876425 rev/d
Perigee alt
1,478.8 km
Apogee alt
1,510.1 km
Semi-major
7,872.6 km
B*
-2.4949e-4
RAAN
287.5057°
Arg perigee
181.1663°
Mean anomaly
178.9373°
Rev number
27,094

§ Raw data

GONETS-M 181 46487U 20068B   26263.16046470 -.00000025  00000+0 -24949-3 0  99912 46487  82.4901 287.5057 0019874 181.1663 178.9373 12.42876425270945

JSON: /api/v1/satellites/46487 · /tle

For live sub-satellite position, see the globe view (requires WebGL).

§ Visibility from observer

Set your observer location to see the next 7 days of passes ≥ 10°. The values pass through the URL so the page stays shareable.

No JS? Fill the form by hand. The geolocation button needs JavaScript.

§ Radio — SatNOGS DB

ModeDescriptionDownlinkUplink
FM UHF Unknown 387.175 MHz
FM UHF Unknown 387.774 MHz

2 transmitters · refreshed weekly from db.satnogs.org